map of TMR home
TMR - Airport
Location
City:  Tamanrasset, Tamanrasset, Algeria
Name:Aguemar-Hadj Bey Akhamok
ICAO:DAAT
IATA:TMR

Details
Type:Airport (Aerodrome, Airfield)
Latitude:2248'40"N (22.811111)
Longitude:527'03"E (5.450833)
Elevation:4518 ft (1377 m)
Variation:0.67E (WMM2015 magnetic declination)
0.08 annual change
Runways:2
Longest:11811 × 148 ft (3600 × 45 m), paved

Time
Time Zone:UTC+1
Local Time:

Weather
METAR:DAAT 191400Z 17007KT 090V240 9999 SCT046 SCT100 32/03 Q1020
TAF:DAAT 191100Z 1912/2012 18012KT 9999 FEW046 PROB30
TEMPO 1912/1918 18015G25KT 4000 DRSA FEW040CB
BECMG 1922/2001 06006KT PROB40
TEMPO 1923/2004 5000 -TSRA FEW040CB
BECMG 2006/2010 20012KT

Related Locations
Nearby:
Farthest:EUA: 12329 mi / 19841 km
Eua [Kaufana], TO

Find:

   beyond  
but within

Other Information
Maps:
NOTAMs:
Links:
Sources:

  
  • flag of Algeria
  

Sectional Chart

Flight Planning
at skyvector.com

Satellite Image

Google Maps Satellite view

 

Copyright © 2004-2018 Karl L. Swartz. All rights reserved.
The Great Circle Mapper name and logo are trademarks of the Great Circle Mapper.
All other trademarks mentioned herein belong to their respective owners.
Please see credits for attibutions and further copyright information.

  Follow gcmap on Facebook Follow gcmap on Twitter Follow gcmap on Google+ GCmap on LinkedIn

hCard Microformat

Geo Microformat